Location: Sternwarte auf dem Internationalen Platz Vogelsang IP
(50.5721°N, 6.4398°E)
Time: 04:56:28
(UTC+01:00)

Transit 2A Rocket - Pass Details

Date: 12 December 2025
Orbit: 581 x 903 km, 66.7° (Epoch: 13 January)

Event Time Altitude Azimuth Distance (km) Brightness Sun altitude
Rises 15:51:07 0° 320° (NW) 3,528 8.4 3.8°
Reaches altitude 10° 15:53:56 10° 331° (NNW) 2,591 7.6 3.5°
Maximum altitude 15:59:20 32° 33° (NNE) 1,495 6.1 2.9°
Drops below altitude 10° 16:04:35 10° 96° (E) 2,524 7.3 2.2°
Sets 16:07:17 0° 106° (ESE) 3,423 8.0 1.9°
